Other Surface Observations
Issued by NWS

Home | Current Version | Previous Version | Text Only | Print | Product List | Glossary On
Versions: 1 2 3 4 5 6 7 8 9 10 11 12 13 14 15 16 17 18 19 20 21 22 23 24 25 26 27 28 29 30 31 32 33 34 35 36 37 38 39 40 41 42 43 44 45 46 47 48 49 50
000
SXUS52 KTAE 301318
OSOTAE
OSOTAE
North Florida/South Alabama/Southwest Georgia Weather Roundup
National Weather Service Tallahassee Florida
900 AM EDT SAT MAY 30 2015

Note: "fair" indicates few or no clouds below 12,000 feet with no
significant weather and/or obstructions to visibility.

!FLZ017-115-028-034-025-301400
...North Florida...

CITY           SKY/WX    TMP DP  RH WIND       PRES   REMARKS
TALLAHASSEE    MOSUNNY   77  68  73 E9        30.12S
APALACHICOLA   MOSUNNY   84  70  62 SE14      30.10R
PERRY          SUNNY     75  70  83 E5        30.14R
CROSS CITY       N/A     77  69  76 E3        30.12S
JACKSONVILLE   PTSUNNY   73  71  93 N7        30.12R
$$

!FLZ112-006-005-002-011-301400
...Florida Panhandle...

CITY           SKY/WX    TMP DP  RH WIND       PRES   REMARKS
MARIANNA       SUNNY     74  70  87 E5        30.11F
BONIFAY        FAIR      74  68  81 VRB5      30.12S
PANAMA CITY NW FAIR      75  69  81 E7        30.10R
TYNDALL AFB    SUNNY     76  70  82 E8        30.09S
TYND DRONE APT FAIR      76  72  86 E7        30.09S
DE FUNIAK SPR  FAIR      73  68  86 MISG      30.12S
EGLIN AFB      MOSUNNY   76  68  76 E8        30.09S
DESTIN         SUNNY     78  71  79 E8        30.09S
HURLBURT       SUNNY     76  66  70 E6        30.08S
CRESTVIEW      SUNNY     73  69  87 E8        30.12S
PENSACOLA      PTSUNNY   75  68  78 E6        30.10R
$$

!ALZ063-066-301400
...South Alabama...

CITY           SKY/WX    TMP DP  RH WIND       PRES   REMARKS
DOTHAN         SUNNY     74  67  78 SE8       30.16S
OZARK CAIRNS   SUNNY     74  67  80 E3        30.13R
FT RUCKER HELI SUNNY     75  68  78 CALM      30.12S
RUCKER HELI 3  FAIR      73  67  80 E3        30.14S
RUCKER HELI 2  FAIR      72  69  90 E6        30.12S
FLORALA APT    SUNNY     73  68  84 E5        30.14R
ANDALUSIA      SUNNY     77  68  73 SE6       30.13R
TROY           SUNNY     75  68  78 MISG      30.14R
EUFALA         PTSUNNY   75  68  78 S7        30.14R
MOBILE         MOSUNNY   75  69  81 E6        30.11R
$$

!GAZ120>161-301400
...Southwest and South Central Georgia...

CITY           SKY/WX    TMP DP  RH WIND       PRES   REMARKS
THOMASVILLE    FAIR      73  70  88 E5        30.16S
BAINBRIDGE     SUNNY     77  70  78 SE5       30.14S
MOODY AFB      SUNNY     75  68  79 E6        30.14R
VALDOSTA       MOSUNNY   74  70  87 E6        30.15R
MOULTRIE       SUNNY     73  68  83 SE5       30.16S
BLAKELY        SUNNY     75  70  83 E5        30.15R
ALBANY         SUNNY     76  67  73 SE7       30.17S
TIFTON         FAIR      75  67  77 SE3       30.16R
FITZGERALD     FAIR      76  69  79 SE3       30.19R
CORDELE        FAIR      78  70  76 SE5       30.18R
AMERICUS       FAIR      73  68  83 S5        30.19R
HOMERVILLE     FAIR      77  72  83 E3        30.16R
$$

!GMZ750-755-770-775-301400
...Coastal and Buoy Obs...

STATION/POSITION TIME  TEMP    WIND        PRES    VSBY  WAVE
                       AIR SEA DIR/SP/G                  HT/PER
                 (UTC) (F)     (DEG/KT/KT) (MB)    (MI)  (FT/S)
KEATON BEACH     1300   74      80/  7/  8 1020.2R
CEDAR KEY        1300   74      60/  7/  8 1020.3R
C TOWER          1300   79     120/ 14/ 14 1019.1R
APALACHICOLA BUO 1250   80 81  120/ 12/ 14 1018.6R         3/ 6
PANAMA CITY BUOY 1250   80 81   90/  8/ 10 1018.5R         2/ 8
MOBILE BUOY      1250   78 80  100/  6/  8 1018.4R         3/ 6
ORANGE BCH AL BU 1250   79 80  130/  4/  6 1018.2R         3/ 6
$$



USA.gov is the U.S. government's official web portal to all federal, state and local government web resources and services.